Time,TemperatureF,DewpointF,PressureIn,WindDirection,WindDirectionDegrees,WindSpeedMPH,WindSpeedGustMPH,Humidity,HourlyPrecipIn,Conditions,Clouds,dailyrainin,SoftwareType,DateUTC
2013-02-02 00:00:00,21.0,12.8,30.17,West,270,2.0,6.0,70,0.00,,,0.00,Weather View 32 v70,2013-02-02 05:00:00,
2013-02-02 00:01:00,21.0,12.8,30.17,SW,225,1.0,6.0,70,0.00,,,0.00,Weather View 32 v70,2013-02-02 05:01:00,
2013-02-02 00:06:00,21.0,12.8,30.16,WNW,292,1.0,6.0,70,0.00,,,0.00,Weather View 32 v70,2013-02-02 05:06:00,
2013-02-02 00:11:00,20.0,11.8,30.16,WNW,292,3.0,6.0,70,0.00,,,0.00,Weather View 32 v70,2013-02-02 05:11:00,
2013-02-02 00:16:00,20.0,12.1,30.16,WSW,248,5.0,6.0,71,0.00,,,0.00,Weather View 32 v70,2013-02-02 05:16:00,
2013-02-02 00:21:00,20.0,12.1,30.16,West,270,6.0,6.0,71,0.00,,,0.00,Weather View 32 v70,2013-02-02 05:21:00,
2013-02-02 00:26:00,20.0,12.1,30.17,WNW,292,5.0,6.0,71,0.00,,,0.00,Weather View 32 v70,2013-02-02 05:26:00,
2013-02-02 00:31:00,20.0,12.1,30.17,West,270,6.0,7.0,71,0.00,,,0.00,Weather View 32 v70,2013-02-02 05:31:00,
2013-02-02 00:36:00,20.0,12.4,30.17,West,270,3.0,7.0,72,0.00,,,0.00,Weather View 32 v70,2013-02-02 05:36:00,
2013-02-02 00:41:00,20.0,12.4,30.16,WSW,248,1.0,7.0,72,0.00,,,0.00,Weather View 32 v70,2013-02-02 05:41:00,
2013-02-02 00:46:00,20.0,12.4,30.16,West,270,3.0,7.0,72,0.00,,,0.00,Weather View 32 v70,2013-02-02 05:46:00,
2013-02-02 00:51:00,20.0,12.1,30.15,SW,225,3.0,7.0,71,0.00,,,0.00,Weather View 32 v70,2013-02-02 05:51:00,
2013-02-02 00:56:00,20.0,12.4,30.15,SSW,202,1.0,7.0,72,0.00,,,0.00,Weather View 32 v70,2013-02-02 05:56:00,
2013-02-02 01:01:00,20.0,12.4,30.15,SW,225,1.0,7.0,72,0.00,,,0.00,Weather View 32 v70,2013-02-02 06:01:00,
2013-02-02 01:06:00,20.0,12.4,30.15,West,270,1.0,7.0,72,0.00,,,0.00,Weather View 32 v70,2013-02-02 06:06:00,
2013-02-02 01:11:00,20.0,12.4,30.15,WSW,248,1.0,7.0,72,0.00,,,0.00,Weather View 32 v70,2013-02-02 06:11:00,
2013-02-02 01:16:00,20.0,12.4,30.14,WNW,292,0.0,7.0,72,0.00,,,0.00,Weather View 32 v70,2013-02-02 06:16:00,
2013-02-02 01:21:00,20.0,12.4,30.14,WNW,292,2.0,7.0,72,0.00,,,0.00,Weather View 32 v70,2013-02-02 06:21:00,
2013-02-02 01:26:00,20.0,12.7,30.16,West,270,4.0,7.0,73,0.00,,,0.00,Weather View 32 v70,2013-02-02 06:26:00,
2013-02-02 01:31:00,20.0,12.7,30.16,WSW,248,5.0,6.0,73,0.00,,,0.00,Weather View 32 v70,2013-02-02 06:31:00,
2013-02-02 01:36:00,20.0,12.7,30.15,West,270,4.0,6.0,73,0.00,,,0.00,Weather View 32 v70,2013-02-02 06:36:00,
2013-02-02 01:41:00,20.0,12.1,30.15,WSW,248,3.0,7.0,71,0.00,,,0.00,Weather View 32 v70,2013-02-02 06:41:00,
2013-02-02 01:46:00,21.0,13.1,30.16,WSW,248,3.0,7.0,71,0.00,,,0.00,Weather View 32 v70,2013-02-02 06:46:00,
2013-02-02 01:51:00,21.0,13.1,30.16,West,270,5.0,7.0,71,0.00,,,0.00,Weather View 32 v70,2013-02-02 06:51:00,
2013-02-02 01:56:00,21.0,13.1,30.16,WSW,248,6.0,8.0,71,0.00,,,0.00,Weather View 32 v70,2013-02-02 06:56:00,
2013-02-02 02:01:00,21.0,13.1,30.16,WSW,248,5.0,8.0,71,0.00,,,0.00,Weather View 32 v70,2013-02-02 07:01:00,
2013-02-02 02:06:00,20.0,12.1,30.16,West,270,6.0,8.0,71,0.00,,,0.00,Weather View 32 v70,2013-02-02 07:06:00,
2013-02-02 02:11:00,20.0,12.1,30.16,WSW,248,5.0,9.0,71,0.00,,,0.00,Weather View 32 v70,2013-02-02 07:11:00,
2013-02-02 02:16:00,20.0,12.1,30.15,WSW,248,5.0,9.0,71,0.00,,,0.00,Weather View 32 v70,2013-02-02 07:16:00,
2013-02-02 02:21:00,21.0,12.8,30.15,West,270,3.0,9.0,70,0.00,,,0.00,Weather View 32 v70,2013-02-02 07:21:00,
2013-02-02 02:26:00,21.0,13.1,30.15,WSW,248,3.0,9.0,71,0.00,,,0.00,Weather View 32 v70,2013-02-02 07:26:00,
2013-02-02 02:31:00,21.0,13.1,30.15,WSW,248,3.0,9.0,71,0.00,,,0.00,Weather View 32 v70,2013-02-02 07:31:00,
2013-02-02 02:36:00,21.0,13.1,30.14,WSW,248,2.0,9.0,71,0.00,,,0.00,Weather View 32 v70,2013-02-02 07:36:00,
2013-02-02 02:41:00,21.0,13.1,30.14,South,180,0.0,9.0,71,0.00,,,0.00,Weather View 32 v70,2013-02-02 07:41:00,
2013-02-02 02:46:00,21.0,13.1,30.14,SSW,202,2.0,9.0,71,0.00,,,0.00,Weather View 32 v70,2013-02-02 07:46:00,
2013-02-02 02:51:00,21.0,12.8,30.14,WSW,248,2.0,9.0,70,0.00,,,0.00,Weather View 32 v70,2013-02-02 07:51:00,
2013-02-02 02:56:00,21.0,13.1,30.15,SSW,202,2.0,9.0,71,0.00,,,0.00,Weather View 32 v70,2013-02-02 07:56:00,
2013-02-02 03:01:00,21.0,13.1,30.14,SE,135,0.0,9.0,71,0.00,,,0.00,Weather View 32 v70,2013-02-02 08:01:00,
2013-02-02 03:06:00,21.0,12.8,30.15,West,270,2.0,9.0,70,0.00,,,0.00,Weather View 32 v70,2013-02-02 08:06:00,
2013-02-02 03:11:00,21.0,12.8,30.14,West,270,2.0,8.0,70,0.00,,,0.00,Weather View 32 v70,2013-02-02 08:11:00,
2013-02-02 03:16:00,21.0,12.4,30.14,West,270,2.0,7.0,69,0.00,,,0.00,Weather View 32 v70,2013-02-02 08:16:00,
2013-02-02 03:22:00,21.0,12.4,30.14,West,270,1.0,6.0,69,0.00,,,0.00,Weather View 32 v70,2013-02-02 08:22:00,
2013-02-02 03:27:00,21.0,12.1,30.14,NW,315,2.0,6.0,68,0.00,,,0.00,Weather View 32 v70,2013-02-02 08:27:00,
2013-02-02 03:32:00,21.0,12.1,30.14,ESE,112,0.0,4.0,68,0.00,,,0.00,Weather View 32 v70,2013-02-02 08:32:00,
2013-02-02 03:37:00,21.0,12.4,30.14,SSW,202,0.0,4.0,69,0.00,,,0.00,Weather View 32 v70,2013-02-02 08:37:00,
2013-02-02 03:42:00,21.0,12.4,30.14,WSW,248,0.0,4.0,69,0.00,,,0.00,Weather View 32 v70,2013-02-02 08:42:00,
2013-02-02 03:47:00,21.0,12.4,30.14,SSW,202,0.0,4.0,69,0.00,,,0.00,Weather View 32 v70,2013-02-02 08:47:00,
2013-02-02 03:52:00,21.0,12.4,30.14,SE,135,0.0,3.0,69,0.00,,,0.00,Weather View 32 v70,2013-02-02 08:52:00,
2013-02-02 03:57:00,21.0,12.4,30.14,ESE,112,0.0,3.0,69,0.00,,,0.00,Weather View 32 v70,2013-02-02 08:57:00,
2013-02-02 04:02:00,21.0,12.4,30.14,West,270,0.0,3.0,69,0.00,,,0.00,Weather View 32 v70,2013-02-02 09:02:00,
2013-02-02 04:07:00,21.0,12.8,30.13,SSE,158,0.0,3.0,70,0.00,,,0.00,Weather View 32 v70,2013-02-02 09:07:00,
2013-02-02 04:12:00,21.0,12.8,30.13,WSW,248,0.0,3.0,70,0.00,,,0.00,Weather View 32 v70,2013-02-02 09:12:00,
2013-02-02 04:17:00,21.0,12.8,30.13,SW,225,1.0,3.0,70,0.00,,,0.00,Weather View 32 v70,2013-02-02 09:17:00,
2013-02-02 04:22:00,21.0,13.1,30.13,East,90,1.0,3.0,71,0.00,,,0.00,Weather View 32 v70,2013-02-02 09:22:00,
2013-02-02 04:27:00,21.0,13.1,30.13,South,180,0.0,3.0,71,0.00,,,0.00,Weather View 32 v70,2013-02-02 09:27:00,
2013-02-02 04:32:00,21.0,13.1,30.12,SW,225,3.0,3.0,71,0.00,,,0.00,Weather View 32 v70,2013-02-02 09:32:00,
2013-02-02 04:37:00,22.0,14.4,30.12,SW,225,1.0,5.0,72,0.00,,,0.00,Weather View 32 v70,2013-02-02 09:37:00,
2013-02-02 04:42:00,22.0,14.0,30.12,SE,135,2.0,6.0,71,0.00,,,0.00,Weather View 32 v70,2013-02-02 09:42:00,
2013-02-02 04:47:00,22.0,13.7,30.12,NNE,22,0.0,6.0,70,0.00,,,0.00,Weather View 32 v70,2013-02-02 09:47:00,
2013-02-02 04:52:00,22.0,13.7,30.12,SSE,158,0.0,6.0,70,0.00,,,0.00,Weather View 32 v70,2013-02-02 09:52:00,
2013-02-02 04:57:00,22.0,13.7,30.12,North,0,1.0,6.0,70,0.00,,,0.00,Weather View 32 v70,2013-02-02 09:57:00,
2013-02-02 05:02:00,22.0,13.7,30.12,SW,225,1.0,6.0,70,0.00,,,0.00,Weather View 32 v70,2013-02-02 10:02:00,
2013-02-02 05:07:00,22.0,14.0,30.12,NW,315,1.0,6.0,71,0.00,,,0.00,Weather View 32 v70,2013-02-02 10:07:00,
2013-02-02 05:12:00,22.0,14.0,30.12,SW,225,5.0,6.0,71,0.00,,,0.00,Weather View 32 v70,2013-02-02 10:12:00,
2013-02-02 05:17:00,22.0,13.7,30.12,WSW,248,4.0,7.0,70,0.00,,,0.00,Weather View 32 v70,2013-02-02 10:17:00,
2013-02-02 05:22:00,22.0,13.7,30.12,South,180,2.0,8.0,70,0.00,,,0.00,Weather View 32 v70,2013-02-02 10:22:00,
2013-02-02 05:27:00,22.0,14.0,30.12,WSW,248,1.0,8.0,71,0.00,,,0.00,Weather View 32 v70,2013-02-02 10:27:00,
2013-02-02 05:32:00,22.0,14.0,30.13,SSW,202,0.0,8.0,71,0.00,,,0.00,Weather View 32 v70,2013-02-02 10:32:00,
2013-02-02 05:37:00,22.0,14.4,30.13,NE,45,0.0,8.0,72,0.00,,,0.00,Weather View 32 v70,2013-02-02 10:37:00,
2013-02-02 05:42:00,22.0,14.0,30.13,SSW,202,5.0,8.0,71,0.00,,,0.00,Weather View 32 v70,2013-02-02 10:42:00,
2013-02-02 05:47:00,22.0,14.0,30.13,East,90,0.0,8.0,71,0.00,,,0.00,Weather View 32 v70,2013-02-02 10:47:00,
2013-02-02 05:52:00,22.0,14.4,30.13,SE,135,1.0,8.0,72,0.00,,,0.00,Weather View 32 v70,2013-02-02 10:52:00,
2013-02-02 05:57:00,21.0,13.7,30.13,ENE,68,1.0,8.0,73,0.00,,,0.00,Weather View 32 v70,2013-02-02 10:57:00,
2013-02-02 06:02:00,21.0,13.7,30.13,SSW,202,3.0,8.0,73,0.00,,,0.00,Weather View 32 v70,2013-02-02 11:02:00,
2013-02-02 06:07:00,21.0,13.7,30.13,West,270,3.0,8.0,73,0.00,,,0.00,Weather View 32 v70,2013-02-02 11:07:00,
2013-02-02 06:12:00,21.0,13.4,30.13,ENE,68,0.0,8.0,72,0.00,,,0.00,Weather View 32 v70,2013-02-02 11:12:00,
2013-02-02 06:17:00,22.0,14.0,30.13,NNW,338,1.0,8.0,71,0.00,,,0.00,Weather View 32 v70,2013-02-02 11:17:00,
2013-02-02 06:22:00,21.0,13.4,30.13,ENE,68,1.0,8.0,72,0.00,,,0.00,Weather View 32 v70,2013-02-02 11:22:00,
2013-02-02 06:27:00,21.0,13.4,30.14,WSW,248,2.0,8.0,72,0.00,,,0.00,Weather View 32 v70,2013-02-02 11:27:00,
2013-02-02 06:32:00,21.0,13.1,30.14,WSW,248,2.0,8.0,71,0.00,,,0.00,Weather View 32 v70,2013-02-02 11:32:00,
2013-02-02 06:37:00,21.0,13.1,30.14,SSE,158,1.0,8.0,71,0.00,,,0.00,Weather View 32 v70,2013-02-02 11:37:00,
2013-02-02 06:42:00,21.0,13.1,30.14,ESE,112,0.0,8.0,71,0.00,,,0.00,Weather View 32 v70,2013-02-02 11:42:00,
2013-02-02 06:47:00,21.0,13.4,30.14,NNE,22,2.0,8.0,72,0.00,,,0.00,Weather View 32 v70,2013-02-02 11:47:00,
2013-02-02 06:52:00,21.0,13.4,30.14,North,0,0.0,8.0,72,0.00,,,0.00,Weather View 32 v70,2013-02-02 11:52:00,
2013-02-02 06:57:00,21.0,13.7,30.14,ESE,112,1.0,8.0,73,0.00,,,0.00,Weather View 32 v70,2013-02-02 11:57:00,
2013-02-02 07:02:00,21.0,13.7,30.13,SSW,202,3.0,8.0,73,0.00,,,0.00,Weather View 32 v70,2013-02-02 12:02:00,
2013-02-02 07:07:00,21.0,13.7,30.13,West,270,5.0,10.0,73,0.00,,,0.00,Weather View 32 v70,2013-02-02 12:07:00,
2013-02-02 07:12:00,21.0,13.4,30.13,WSW,248,4.0,10.0,72,0.00,,,0.00,Weather View 32 v70,2013-02-02 12:12:00,
2013-02-02 07:17:00,21.0,13.7,30.14,SSW,202,2.0,10.0,73,0.00,,,0.00,Weather View 32 v70,2013-02-02 12:17:00,
2013-02-02 07:22:00,21.0,13.4,30.14,South,180,1.0,11.0,72,0.00,,,0.00,Weather View 32 v70,2013-02-02 12:22:00,
2013-02-02 07:27:00,21.0,13.4,30.14,ESE,112,0.0,11.0,72,0.00,,,0.00,Weather View 32 v70,2013-02-02 12:27:00,
2013-02-02 07:32:00,21.0,13.1,30.14,NNW,338,3.0,11.0,71,0.00,,,0.00,Weather View 32 v70,2013-02-02 12:32:00,
2013-02-02 07:37:00,21.0,13.1,30.14,NNE,22,0.0,11.0,71,0.00,,,0.00,Weather View 32 v70,2013-02-02 12:37:00,
2013-02-02 07:42:00,21.0,12.8,30.14,SW,225,3.0,11.0,70,0.00,,,0.00,Weather View 32 v70,2013-02-02 12:42:00,
2013-02-02 07:47:00,21.0,12.1,30.14,West,270,0.0,11.0,68,0.00,,,0.00,Weather View 32 v70,2013-02-02 12:47:00,
2013-02-02 07:53:00,21.0,12.4,30.14,ENE,68,1.0,11.0,69,0.00,,,0.00,Weather View 32 v70,2013-02-02 12:53:00,
2013-02-02 07:58:00,22.0,13.4,30.14,NE,45,3.0,11.0,69,0.00,,,0.00,Weather View 32 v70,2013-02-02 12:58:00,
2013-02-02 08:03:00,22.0,13.1,30.14,ENE,68,1.0,11.0,68,0.00,,,0.00,Weather View 32 v70,2013-02-02 13:03:00,
2013-02-02 08:08:00,22.0,12.7,30.14,NE,45,6.0,11.0,67,0.00,,,0.00,Weather View 32 v70,2013-02-02 13:08:00,
2013-02-02 08:13:00,22.0,12.4,30.14,East,90,1.0,11.0,66,0.00,,,0.00,Weather View 32 v70,2013-02-02 13:13:00,
2013-02-02 08:18:00,23.0,13.3,30.14,SW,225,5.0,11.0,66,0.00,,,0.00,Weather View 32 v70,2013-02-02 13:18:00,
2013-02-02 08:23:00,23.0,13.0,30.14,ENE,68,2.0,11.0,65,0.00,,,0.00,Weather View 32 v70,2013-02-02 13:23:00,
2013-02-02 08:28:00,23.0,13.0,30.14,SSE,158,7.0,11.0,65,0.00,,,0.00,Weather View 32 v70,2013-02-02 13:28:00,
2013-02-02 08:33:00,23.0,13.0,30.14,SSW,202,6.0,11.0,65,0.00,,,0.00,Weather View 32 v70,2013-02-02 13:33:00,
2013-02-02 08:38:00,23.0,13.0,30.14,SSE,158,5.0,11.0,65,0.00,,,0.00,Weather View 32 v70,2013-02-02 13:38:00,
2013-02-02 08:43:00,23.0,13.0,30.14,WSW,248,5.0,11.0,65,0.00,,,0.00,Weather View 32 v70,2013-02-02 13:43:00,
2013-02-02 08:48:00,23.0,13.3,30.14,East,90,1.0,11.0,66,0.00,,,0.00,Weather View 32 v70,2013-02-02 13:48:00,
2013-02-02 08:53:00,24.0,14.3,30.14,NE,45,1.0,9.0,66,0.00,,,0.00,Weather View 32 v70,2013-02-02 13:53:00,
2013-02-02 08:58:00,25.0,14.2,30.13,SSW,202,4.0,9.0,63,0.00,,,0.00,Weather View 32 v70,2013-02-02 13:58:00,
2013-02-02 09:03:00,25.0,13.8,30.14,SW,225,6.0,11.0,62,0.00,,,0.00,Weather View 32 v70,2013-02-02 14:03:00,
2013-02-02 09:08:00,25.0,14.2,30.13,SSE,158,3.0,14.0,63,0.00,,,0.00,Weather View 32 v70,2013-02-02 14:08:00,
2013-02-02 09:13:00,25.0,13.4,30.13,West,270,2.0,14.0,61,0.00,,,0.00,Weather View 32 v70,2013-02-02 14:13:00,
2013-02-02 09:18:00,25.0,13.1,30.13,ESE,112,1.0,14.0,60,0.00,,,0.00,Weather View 32 v70,2013-02-02 14:18:00,
2013-02-02 09:23:00,25.0,13.1,30.14,WSW,248,5.0,14.0,60,0.00,,,0.00,Weather View 32 v70,2013-02-02 14:23:00,
2013-02-02 09:28:00,26.0,14.4,30.14,ENE,68,4.0,14.0,61,0.00,,,0.00,Weather View 32 v70,2013-02-02 14:28:00,
2013-02-02 09:33:00,26.0,13.6,30.14,NW,315,3.0,14.0,59,0.00,,,0.00,Weather View 32 v70,2013-02-02 14:33:00,
2013-02-02 09:38:00,26.0,14.0,30.13,ENE,68,1.0,14.0,60,0.00,,,0.00,Weather View 32 v70,2013-02-02 14:38:00,
2013-02-02 09:43:00,27.0,13.8,30.13,SE,135,3.0,14.0,57,0.00,,,0.00,Weather View 32 v70,2013-02-02 14:43:00,
2013-02-02 09:48:00,27.0,13.4,30.13,SE,135,1.0,14.0,56,0.00,,,0.00,Weather View 32 v70,2013-02-02 14:48:00,
2013-02-02 09:53:00,27.0,13.0,30.13,SE,135,8.0,14.0,55,0.00,,,0.00,Weather View 32 v70,2013-02-02 14:53:00,
2013-02-02 09:58:00,27.0,13.0,30.12,West,270,6.0,14.0,55,0.00,,,0.00,Weather View 32 v70,2013-02-02 14:58:00,
2013-02-02 10:03:00,27.0,13.0,30.12,SW,225,4.0,14.0,55,0.00,,,0.00,Weather View 32 v70,2013-02-02 15:03:00,
2013-02-02 10:08:00,27.0,12.6,30.12,ESE,112,3.0,12.0,54,0.00,,,0.00,Weather View 32 v70,2013-02-02 15:08:00,
2013-02-02 10:13:00,27.0,13.0,30.12,SSW,202,4.0,12.0,55,0.00,,,0.00,Weather View 32 v70,2013-02-02 15:13:00,
2013-02-02 10:18:00,27.0,12.6,30.11,SSW,202,6.0,12.0,54,0.00,,,0.00,Weather View 32 v70,2013-02-02 15:18:00,
2013-02-02 10:23:00,27.0,12.6,30.11,SE,135,5.0,14.0,54,0.00,,,0.00,Weather View 32 v70,2013-02-02 15:23:00,
2013-02-02 10:28:00,28.0,13.5,30.11,East,90,3.0,14.0,54,0.00,,,0.00,Weather View 32 v70,2013-02-02 15:28:00,
2013-02-02 10:33:00,28.0,13.1,30.10,SSW,202,5.0,17.0,53,0.00,,,0.00,Weather View 32 v70,2013-02-02 15:33:00,
2013-02-02 10:38:00,29.0,14.0,30.10,SE,135,4.0,17.0,53,0.00,,,0.00,Weather View 32 v70,2013-02-02 15:38:00,
2013-02-02 10:43:00,29.0,13.6,30.10,West,270,4.0,17.0,52,0.00,,,0.00,Weather View 32 v70,2013-02-02 15:43:00,
2013-02-02 10:48:00,29.0,12.7,30.10,SSW,202,6.0,17.0,50,0.00,,,0.00,Weather View 32 v70,2013-02-02 15:48:00,
2013-02-02 10:53:00,30.0,13.1,30.10,WNW,292,2.0,17.0,49,0.00,,,0.00,Weather View 32 v70,2013-02-02 15:53:00,
2013-02-02 10:58:00,30.0,12.7,30.10,South,180,6.0,17.0,48,0.00,,,0.00,Weather View 32 v70,2013-02-02 15:58:00,
2013-02-02 11:03:00,30.0,12.7,30.10,NW,315,1.0,17.0,48,0.00,,,0.00,Weather View 32 v70,2013-02-02 16:03:00,
2013-02-02 11:08:00,31.0,14.5,30.10,SW,225,6.0,17.0,50,0.00,,,0.00,Weather View 32 v70,2013-02-02 16:08:00,
2013-02-02 11:13:00,32.0,15.4,30.09,North,0,3.0,17.0,50,0.00,,,0.00,Weather View 32 v70,2013-02-02 16:13:00,
2013-02-02 11:18:00,32.0,15.0,30.09,WSW,248,3.0,17.0,49,0.00,,,0.00,Weather View 32 v70,2013-02-02 16:18:00,
2013-02-02 11:23:00,33.0,14.9,30.09,WSW,248,7.0,17.0,47,0.00,,,0.00,Weather View 32 v70,2013-02-02 16:23:00,
2013-02-02 11:28:00,34.0,15.9,30.09,SSW,202,5.0,17.0,47,0.00,,,0.00,Weather View 32 v70,2013-02-02 16:28:00,
2013-02-02 11:33:00,34.0,15.9,30.09,ESE,112,3.0,15.0,47,0.00,,,0.00,Weather View 32 v70,2013-02-02 16:33:00,
2013-02-02 11:39:00,34.0,15.4,30.09,NNE,22,1.0,15.0,46,0.00,,,0.00,Weather View 32 v70,2013-02-02 16:39:00,
2013-02-02 11:44:00,34.0,15.4,30.08,WNW,292,2.0,15.0,46,0.00,,,0.00,Weather View 32 v70,2013-02-02 16:44:00,
2013-02-02 11:49:00,35.0,16.8,30.08,ESE,112,3.0,12.0,47,0.00,,,0.00,Weather View 32 v70,2013-02-02 16:49:00,
2013-02-02 11:54:00,35.0,15.8,30.07,SSW,202,3.0,12.0,45,0.00,,,0.00,Weather View 32 v70,2013-02-02 16:54:00,
2013-02-02 11:59:00,35.0,14.7,30.07,South,180,1.0,12.0,43,0.00,,,0.00,Weather View 32 v70,2013-02-02 16:59:00,
2013-02-02 12:04:00,36.0,15.6,30.07,SE,135,3.0,12.0,43,0.00,,,0.00,Weather View 32 v70,2013-02-02 17:04:00,
2013-02-02 12:09:00,36.0,15.6,30.07,ENE,68,3.0,12.0,43,0.00,,,0.00,Weather View 32 v70,2013-02-02 17:09:00,
2013-02-02 12:14:00,36.0,16.2,30.07,ESE,112,2.0,12.0,44,0.00,,,0.00,Weather View 32 v70,2013-02-02 17:14:00,
2013-02-02 12:19:00,37.0,17.1,30.07,SE,135,5.0,12.0,44,0.00,,,0.00,Weather View 32 v70,2013-02-02 17:19:00,
2013-02-02 12:24:00,37.0,17.1,30.06,SSW,202,7.0,12.0,44,0.00,,,0.00,Weather View 32 v70,2013-02-02 17:24:00,
2013-02-02 12:29:00,37.0,17.1,30.06,ENE,68,3.0,11.0,44,0.00,,,0.00,Weather View 32 v70,2013-02-02 17:29:00,
2013-02-02 12:34:00,36.0,16.2,30.05,NNE,22,2.0,11.0,44,0.00,,,0.00,Weather View 32 v70,2013-02-02 17:34:00,
2013-02-02 12:39:00,36.0,16.7,30.05,ENE,68,3.0,11.0,45,0.00,,,0.00,Weather View 32 v70,2013-02-02 17:39:00,
2013-02-02 12:44:00,36.0,15.6,30.04,West,270,5.0,11.0,43,0.00,,,0.00,Weather View 32 v70,2013-02-02 17:44:00,
2013-02-02 12:49:00,36.0,16.2,30.04,SE,135,2.0,11.0,44,0.00,,,0.00,Weather View 32 v70,2013-02-02 17:49:00,
2013-02-02 12:54:00,37.0,17.6,30.04,SSE,158,5.0,11.0,45,0.00,,,0.00,Weather View 32 v70,2013-02-02 17:54:00,
2013-02-02 12:59:00,37.0,17.1,30.03,SW,225,3.0,11.0,44,0.00,,,0.00,Weather View 32 v70,2013-02-02 17:59:00,
2013-02-02 13:04:00,37.0,17.6,30.03,NE,45,3.0,11.0,45,0.00,,,0.00,Weather View 32 v70,2013-02-02 18:04:00,
2013-02-02 13:09:00,38.0,18.0,30.02,East,90,4.0,11.0,44,0.00,,,0.00,Weather View 32 v70,2013-02-02 18:09:00,
2013-02-02 13:14:00,38.0,18.5,30.01,ESE,112,4.0,11.0,45,0.00,,,0.00,Weather View 32 v70,2013-02-02 18:14:00,
2013-02-02 13:19:00,38.0,18.0,30.01,SSW,202,3.0,11.0,44,0.00,,,0.00,Weather View 32 v70,2013-02-02 18:19:00,
2013-02-02 13:24:00,38.0,18.0,30.01,ENE,68,5.0,11.0,44,0.00,,,0.00,Weather View 32 v70,2013-02-02 18:24:00,
2013-02-02 13:29:00,38.0,18.0,30.00,NW,315,2.0,11.0,44,0.00,,,0.00,Weather View 32 v70,2013-02-02 18:29:00,
2013-02-02 13:34:00,38.0,18.5,30.00,ESE,112,4.0,11.0,45,0.00,,,0.00,Weather View 32 v70,2013-02-02 18:34:00,
2013-02-02 13:39:00,38.0,18.5,30.00,SW,225,2.0,11.0,45,0.00,,,0.00,Weather View 32 v70,2013-02-02 18:39:00,
2013-02-02 13:44:00,38.0,19.0,30.00,SSE,158,2.0,11.0,46,0.00,,,0.00,Weather View 32 v70,2013-02-02 18:44:00,
2013-02-02 13:49:00,38.0,19.5,30.00,ESE,112,3.0,11.0,47,0.00,,,0.00,Weather View 32 v70,2013-02-02 18:49:00,
2013-02-02 13:54:00,38.0,19.5,29.99,SW,225,8.0,11.0,47,0.00,,,0.00,Weather View 32 v70,2013-02-02 18:54:00,
2013-02-02 13:59:00,39.0,20.5,29.99,ESE,112,1.0,11.0,47,0.00,,,0.00,Weather View 32 v70,2013-02-02 18:59:00,
2013-02-02 14:04:00,39.0,20.5,29.99,SSW,202,3.0,11.0,47,0.00,,,0.00,Weather View 32 v70,2013-02-02 19:04:00,
2013-02-02 14:09:00,39.0,20.5,29.99,SSW,202,8.0,11.0,47,0.00,,,0.00,Weather View 32 v70,2013-02-02 19:09:00,
2013-02-02 14:14:00,39.0,19.9,29.98,ESE,112,6.0,11.0,46,0.00,,,0.00,Weather View 32 v70,2013-02-02 19:14:00,
2013-02-02 14:19:00,39.0,19.9,29.98,North,0,3.0,11.0,46,0.00,,,0.00,Weather View 32 v70,2013-02-02 19:19:00,
2013-02-02 14:24:00,39.0,19.9,29.97,ENE,68,3.0,11.0,46,0.00,,,0.00,Weather View 32 v70,2013-02-02 19:24:00,
2013-02-02 14:29:00,39.0,19.9,29.97,South,180,11.0,11.0,46,0.00,,,0.00,Weather View 32 v70,2013-02-02 19:29:00,
2013-02-02 14:34:00,39.0,19.9,29.97,SSE,158,4.0,11.0,46,0.00,,,0.00,Weather View 32 v70,2013-02-02 19:34:00,
2013-02-02 14:39:00,39.0,19.4,29.97,SW,225,12.0,14.0,45,0.00,,,0.00,Weather View 32 v70,2013-02-02 19:39:00,
2013-02-02 14:44:00,39.0,19.9,29.97,North,0,3.0,16.0,46,0.00,,,0.00,Weather View 32 v70,2013-02-02 19:44:00,
2013-02-02 14:49:00,39.0,20.5,29.97,SW,225,8.0,16.0,47,0.00,,,0.00,Weather View 32 v70,2013-02-02 19:49:00,
2013-02-02 14:54:00,39.0,20.5,29.97,ESE,112,3.0,16.0,47,0.00,,,0.00,Weather View 32 v70,2013-02-02 19:54:00,
2013-02-02 14:59:00,39.0,20.5,29.96,North,0,2.0,16.0,47,0.00,,,0.00,Weather View 32 v70,2013-02-02 19:59:00,
2013-02-02 15:04:00,38.0,20.5,29.97,East,90,1.0,16.0,49,0.00,,,0.00,Weather View 32 v70,2013-02-02 20:04:00,
2013-02-02 15:09:00,38.0,20.0,29.96,SW,225,6.0,16.0,48,0.00,,,0.00,Weather View 32 v70,2013-02-02 20:09:00,
2013-02-02 15:14:00,38.0,21.5,29.96,West,270,3.0,16.0,51,0.00,,,0.00,Weather View 32 v70,2013-02-02 20:14:00,
2013-02-02 15:19:00,38.0,21.5,29.96,WNW,292,2.0,17.0,51,0.00,,,0.00,Weather View 32 v70,2013-02-02 20:19:00,
2013-02-02 15:24:00,38.0,21.9,29.95,SSW,202,6.0,17.0,52,0.00,,,0.00,Weather View 32 v70,2013-02-02 20:24:00,
2013-02-02 15:29:00,39.0,23.7,29.95,WSW,248,3.0,17.0,54,0.00,,,0.00,Weather View 32 v70,2013-02-02 20:29:00,
2013-02-02 15:34:00,39.0,24.2,29.95,NNW,338,3.0,17.0,55,0.00,,,0.00,Weather View 32 v70,2013-02-02 20:34:00,
2013-02-02 15:39:00,40.0,25.1,29.94,NNE,22,2.0,18.0,55,0.00,,,0.00,Weather View 32 v70,2013-02-02 20:39:00,
2013-02-02 15:44:00,40.0,26.0,29.94,West,270,6.0,18.0,57,0.00,,,0.00,Weather View 32 v70,2013-02-02 20:44:00,
2013-02-02 15:49:00,41.0,26.9,29.94,WSW,248,7.0,18.0,57,0.00,,,0.00,Weather View 32 v70,2013-02-02 20:49:00,
2013-02-02 15:54:00,40.0,26.0,29.94,SW,225,8.0,18.0,57,0.00,,,0.00,Weather View 32 v70,2013-02-02 20:54:00,
2013-02-02 15:59:00,41.0,26.9,29.94,WSW,248,4.0,18.0,57,0.00,,,0.00,Weather View 32 v70,2013-02-02 20:59:00,
2013-02-02 16:04:00,40.0,26.0,29.94,SE,135,3.0,18.0,57,0.00,,,0.00,Weather View 32 v70,2013-02-02 21:04:00,
2013-02-02 16:09:00,39.0,25.5,29.94,SSW,202,1.0,18.0,58,0.00,,,0.00,Weather View 32 v70,2013-02-02 21:09:00,
2013-02-02 16:14:00,39.0,26.3,29.94,NW,315,5.0,18.0,60,0.00,,,0.00,Weather View 32 v70,2013-02-02 21:14:00,
2013-02-02 16:19:00,38.0,27.3,29.94,East,90,6.0,18.0,65,0.00,,,0.00,Weather View 32 v70,2013-02-02 21:19:00,
2013-02-02 16:24:00,37.0,27.4,29.93,SW,225,8.0,18.0,68,0.00,,,0.00,Weather View 32 v70,2013-02-02 21:24:00,
2013-02-02 16:29:00,36.0,27.5,29.93,WSW,248,3.0,18.0,71,0.00,,,0.00,Weather View 32 v70,2013-02-02 21:29:00,
2013-02-02 16:34:00,36.0,28.2,29.92,South,180,3.0,18.0,73,0.00,,,0.00,Weather View 32 v70,2013-02-02 21:34:00,
2013-02-02 16:40:00,35.0,28.2,29.93,West,270,6.0,14.0,76,0.00,,,0.00,Weather View 32 v70,2013-02-02 21:40:00,
2013-02-02 16:45:00,35.0,29.1,29.93,SSW,202,5.0,14.0,79,0.00,,,0.00,Weather View 32 v70,2013-02-02 21:45:00,
2013-02-02 16:50:00,35.0,30.1,29.93,SSW,202,7.0,14.0,82,0.00,,,0.00,Weather View 32 v70,2013-02-02 21:50:00,
2013-02-02 16:55:00,35.0,30.7,29.93,West,270,5.0,14.0,84,0.00,,,0.00,Weather View 32 v70,2013-02-02 21:55:00,
2013-02-02 17:00:00,35.0,31.2,29.93,South,180,4.0,14.0,86,0.00,,,0.00,Weather View 32 v70,2013-02-02 22:00:00,
2013-02-02 17:05:00,34.0,30.8,29.93,WSW,248,3.0,14.0,88,0.00,,,0.00,Weather View 32 v70,2013-02-02 22:05:00,
2013-02-02 17:10:00,34.0,31.4,29.92,SW,225,6.0,14.0,90,0.00,,,0.00,Weather View 32 v70,2013-02-02 22:10:00,
2013-02-02 17:15:00,34.0,31.6,29.92,West,270,5.0,14.0,91,0.00,,,0.00,Weather View 32 v70,2013-02-02 22:15:00,
2013-02-02 17:20:00,34.0,32.2,29.92,NE,45,1.0,14.0,93,0.00,,,0.00,Weather View 32 v70,2013-02-02 22:20:00,
2013-02-02 17:25:00,34.0,32.5,29.93,SSW,202,6.0,14.0,94,0.00,,,0.00,Weather View 32 v70,2013-02-02 22:25:00,
2013-02-02 17:30:00,34.0,32.5,29.92,SSW,202,8.0,13.0,94,0.00,,,0.00,Weather View 32 v70,2013-02-02 22:30:00,
2013-02-02 17:35:00,34.0,32.7,29.92,SW,225,5.0,14.0,95,0.00,,,0.00,Weather View 32 v70,2013-02-02 22:35:00,
2013-02-02 17:40:00,34.0,33.0,29.91,SSW,202,5.0,14.0,96,0.00,,,0.00,Weather View 32 v70,2013-02-02 22:40:00,
2013-02-02 17:45:00,34.0,33.0,29.91,NW,315,4.0,14.0,96,0.00,,,0.00,Weather View 32 v70,2013-02-02 22:45:00,
2013-02-02 17:50:00,34.0,33.2,29.91,NNW,338,3.0,14.0,97,0.00,,,0.00,Weather View 32 v70,2013-02-02 22:50:00,
2013-02-02 17:55:00,34.0,33.2,29.91,SW,225,9.0,14.0,97,0.00,,,0.00,Weather View 32 v70,2013-02-02 22:55:00,
2013-02-02 18:00:00,34.0,33.5,29.91,WSW,248,5.0,14.0,98,0.00,,,0.00,Weather View 32 v70,2013-02-02 23:00:00,
2013-02-02 18:05:00,34.0,33.5,29.90,ENE,68,3.0,14.0,98,0.00,,,0.00,Weather View 32 v70,2013-02-02 23:05:00,
2013-02-02 18:10:00,34.0,33.5,29.90,SSW,202,5.0,16.0,98,0.00,,,0.00,Weather View 32 v70,2013-02-02 23:10:00,
2013-02-02 18:15:00,34.0,33.7,29.90,WSW,248,9.0,17.0,99,0.00,,,0.00,Weather View 32 v70,2013-02-02 23:15:00,
2013-02-02 18:20:00,34.0,33.7,29.90,SE,135,3.0,17.0,99,0.00,,,0.00,Weather View 32 v70,2013-02-02 23:20:00,
2013-02-02 18:25:00,34.0,33.7,29.90,SSE,158,5.0,17.0,99,0.00,,,0.00,Weather View 32 v70,2013-02-02 23:25:00,
2013-02-02 18:30:00,34.0,33.7,29.90,SE,135,5.0,17.0,99,0.00,,,0.00,Weather View 32 v70,2013-02-02 23:30:00,
2013-02-02 18:35:00,34.0,34.0,29.90,SSW,202,9.0,17.0,100,0.00,,,0.00,Weather View 32 v70,2013-02-02 23:35:00,
2013-02-02 18:40:00,34.0,34.0,29.90,SSW,202,11.0,17.0,100,0.00,,,0.00,Weather View 32 v70,2013-02-02 23:40:00,
2013-02-02 18:45:00,34.0,34.0,29.91,SE,135,3.0,17.0,100,0.00,,,0.00,Weather View 32 v70,2013-02-02 23:45:00,
2013-02-02 18:50:00,34.0,34.0,29.90,WSW,248,4.0,18.0,100,0.00,,,0.00,Weather View 32 v70,2013-02-02 23:50:00,
2013-02-02 18:55:00,34.0,34.0,29.91,South,180,11.0,18.0,100,0.00,,,0.00,Weather View 32 v70,2013-02-02 23:55:00,
2013-02-02 19:00:00,34.0,34.0,29.91,ESE,112,2.0,18.0,100,0.00,,,0.00,Weather View 32 v70,2013-02-03 00:00:00,
2013-02-02 19:05:00,34.0,34.0,29.91,South,180,5.0,18.0,100,0.00,,,0.00,Weather View 32 v70,2013-02-03 00:05:00,
2013-02-02 19:10:00,34.0,34.0,29.91,NNE,22,4.0,18.0,100,0.00,,,0.00,Weather View 32 v70,2013-02-03 00:10:00,
2013-02-02 19:15:00,34.0,34.0,29.91,SSE,158,13.0,18.0,100,0.00,,,0.00,Weather View 32 v70,2013-02-03 00:15:00,
2013-02-02 19:20:00,34.0,34.0,29.91,SSW,202,8.0,18.0,100,0.00,,,0.00,Weather View 32 v70,2013-02-03 00:20:00,
2013-02-02 19:25:00,34.0,34.0,29.91,WSW,248,3.0,18.0,100,0.00,,,0.00,Weather View 32 v70,2013-02-03 00:25:00,
2013-02-02 19:30:00,34.0,34.0,29.91,NW,315,3.0,18.0,100,0.00,,,0.00,Weather View 32 v70,2013-02-03 00:30:00,
2013-02-02 19:35:00,34.0,34.0,29.92,SW,225,6.0,18.0,100,0.00,,,0.00,Weather View 32 v70,2013-02-03 00:35:00,
2013-02-02 19:40:00,34.0,34.0,29.92,SW,225,3.0,18.0,100,0.00,,,0.00,Weather View 32 v70,2013-02-03 00:40:00,
2013-02-02 19:45:00,34.0,34.0,29.91,SE,135,2.0,18.0,100,0.00,,,0.00,Weather View 32 v70,2013-02-03 00:45:00,
2013-02-02 19:50:00,34.0,34.0,29.91,SSW,202,3.0,17.0,100,0.00,,,0.00,Weather View 32 v70,2013-02-03 00:50:00,
2013-02-02 19:55:00,34.0,34.0,29.92,WSW,248,8.0,17.0,100,0.00,,,0.00,Weather View 32 v70,2013-02-03 00:55:00,
2013-02-02 20:00:00,34.0,34.0,29.91,South,180,5.0,17.0,100,0.00,,,0.00,Weather View 32 v70,2013-02-03 01:00:00,
2013-02-02 20:05:00,34.0,34.0,29.91,SE,135,3.0,17.0,100,0.00,,,0.00,Weather View 32 v70,2013-02-03 01:05:00,
2013-02-02 20:10:00,34.0,34.0,29.91,ESE,112,3.0,16.0,100,0.00,,,0.00,Weather View 32 v70,2013-02-03 01:10:00,
2013-02-02 20:15:00,34.0,34.0,29.90,SSW,202,6.0,17.0,100,0.00,,,0.00,Weather View 32 v70,2013-02-03 01:15:00,
2013-02-02 20:20:00,34.0,34.0,29.90,SSW,202,7.0,17.0,100,0.00,,,0.00,Weather View 32 v70,2013-02-03 01:20:00,
2013-02-02 20:25:00,34.0,34.0,29.91,ESE,112,4.0,17.0,100,0.00,,,0.00,Weather View 32 v70,2013-02-03 01:25:00,
2013-02-02 20:30:00,34.0,34.0,29.92,SE,135,3.0,19.0,100,0.00,,,0.00,Weather View 32 v70,2013-02-03 01:30:00,
2013-02-02 20:35:00,34.0,34.0,29.92,West,270,6.0,19.0,100,0.00,,,0.00,Weather View 32 v70,2013-02-03 01:35:00,
2013-02-02 20:40:00,34.0,34.0,29.92,SW,225,6.0,20.0,100,0.00,,,0.00,Weather View 32 v70,2013-02-03 01:40:00,
2013-02-02 20:45:00,34.0,34.0,29.92,South,180,6.0,20.0,100,0.00,,,0.00,Weather View 32 v70,2013-02-03 01:45:00,
2013-02-02 20:50:00,34.0,34.0,29.91,SE,135,5.0,20.0,100,0.00,,,0.00,Weather View 32 v70,2013-02-03 01:50:00,
2013-02-02 20:55:00,34.0,34.0,29.91,SE,135,6.0,20.0,100,0.00,,,0.00,Weather View 32 v70,2013-02-03 01:55:00,
2013-02-02 21:00:00,34.0,34.0,29.91,SE,135,9.0,20.0,100,0.00,,,0.00,Weather View 32 v70,2013-02-03 02:00:00,
2013-02-02 21:05:00,34.0,34.0,29.91,WSW,248,8.0,20.0,100,0.00,,,0.00,Weather View 32 v70,2013-02-03 02:05:00,
2013-02-02 21:10:00,34.0,34.0,29.90,ENE,68,3.0,20.0,100,0.00,,,0.00,Weather View 32 v70,2013-02-03 02:10:00,
2013-02-02 21:15:00,34.0,34.0,29.91,ESE,112,4.0,20.0,100,0.00,,,0.00,Weather View 32 v70,2013-02-03 02:15:00,
2013-02-02 21:20:00,34.0,34.0,29.91,SSW,202,4.0,20.0,100,0.00,,,0.00,Weather View 32 v70,2013-02-03 02:20:00,
2013-02-02 21:25:00,34.0,34.0,29.91,NE,45,6.0,20.0,100,0.00,,,0.00,Weather View 32 v70,2013-02-03 02:25:00,
2013-02-02 21:30:00,34.0,34.0,29.90,SSW,202,10.0,20.0,100,0.00,,,0.00,Weather View 32 v70,2013-02-03 02:30:00,
2013-02-02 21:35:00,34.0,34.0,29.90,West,270,5.0,20.0,100,0.00,,,0.00,Weather View 32 v70,2013-02-03 02:35:00,
2013-02-02 21:40:00,34.0,34.0,29.90,East,90,5.0,18.0,100,0.00,,,0.00,Weather View 32 v70,2013-02-03 02:40:00,
2013-02-02 21:46:00,34.0,34.0,29.90,SSW,202,9.0,18.0,100,0.00,,,0.00,Weather View 32 v70,2013-02-03 02:46:00,
2013-02-02 21:51:00,34.0,34.0,29.90,SSW,202,7.0,18.0,100,0.00,,,0.00,Weather View 32 v70,2013-02-03 02:51:00,
2013-02-02 21:56:00,34.0,34.0,29.90,NE,45,4.0,18.0,100,0.00,,,0.00,Weather View 32 v70,2013-02-03 02:56:00,
2013-02-02 22:01:00,34.0,34.0,29.90,SW,225,8.0,18.0,100,0.00,,,0.00,Weather View 32 v70,2013-02-03 03:01:00,
2013-02-02 22:06:00,34.0,34.0,29.89,SE,135,4.0,21.0,100,0.00,,,0.00,Weather View 32 v70,2013-02-03 03:06:00,
2013-02-02 22:11:00,34.0,34.0,29.89,West,270,5.0,21.0,100,0.00,,,0.00,Weather View 32 v70,2013-02-03 03:11:00,
2013-02-02 22:16:00,34.0,34.0,29.88,SSW,202,13.0,21.0,100,0.00,,,0.00,Weather View 32 v70,2013-02-03 03:16:00,
2013-02-02 22:21:00,34.0,34.0,29.88,West,270,3.0,21.0,100,0.00,,,0.00,Weather View 32 v70,2013-02-03 03:21:00,
2013-02-02 22:26:00,34.0,34.0,29.88,NW,315,5.0,21.0,100,0.00,,,0.00,Weather View 32 v70,2013-02-03 03:26:00,
2013-02-02 22:31:00,34.0,34.0,29.87,SSE,158,13.0,21.0,100,0.00,,,0.00,Weather View 32 v70,2013-02-03 03:31:00,
2013-02-02 22:36:00,34.0,34.0,29.88,SSW,202,11.0,21.0,100,0.00,,,0.00,Weather View 32 v70,2013-02-03 03:36:00,
2013-02-02 22:41:00,34.0,34.0,29.88,West,270,11.0,21.0,100,0.00,,,0.00,Weather View 32 v70,2013-02-03 03:41:00,
2013-02-02 22:46:00,34.0,34.0,29.88,SW,225,11.0,21.0,100,0.00,,,0.00,Weather View 32 v70,2013-02-03 03:46:00,
2013-02-02 22:51:00,34.0,34.0,29.87,SW,225,6.0,21.0,100,0.00,,,0.00,Weather View 32 v70,2013-02-03 03:51:00,
2013-02-02 22:56:00,34.0,34.0,29.88,SSW,202,9.0,21.0,100,0.00,,,0.00,Weather View 32 v70,2013-02-03 03:56:00,
2013-02-02 23:01:00,34.0,34.0,29.88,SSW,202,11.0,21.0,100,0.00,,,0.00,Weather View 32 v70,2013-02-03 04:01:00,
2013-02-02 23:06:00,35.0,35.0,29.88,ESE,112,5.0,20.0,100,0.00,,,0.00,Weather View 32 v70,2013-02-03 04:06:00,
2013-02-02 23:11:00,35.0,35.0,29.88,SSW,202,5.0,20.0,100,0.00,,,0.00,Weather View 32 v70,2013-02-03 04:11:00,
2013-02-02 23:16:00,35.0,35.0,29.87,SW,225,3.0,20.0,100,0.00,,,0.00,Weather View 32 v70,2013-02-03 04:16:00,
2013-02-02 23:21:00,35.0,35.0,29.88,West,270,1.0,20.0,100,0.00,,,0.00,Weather View 32 v70,2013-02-03 04:21:00,
2013-02-02 23:26:00,35.0,35.0,29.87,NNE,22,0.0,20.0,100,0.00,,,0.00,Weather View 32 v70,2013-02-03 04:26:00,
2013-02-02 23:31:00,34.0,34.0,29.87,East,90,3.0,18.0,100,0.00,,,0.00,Weather View 32 v70,2013-02-03 04:31:00,
2013-02-02 23:36:00,34.0,34.0,29.87,ENE,68,5.0,18.0,100,0.00,,,0.00,Weather View 32 v70,2013-02-03 04:36:00,
2013-02-02 23:41:00,34.0,34.0,29.87,SE,135,1.0,18.0,100,0.00,,,0.00,Weather View 32 v70,2013-02-03 04:41:00,
2013-02-02 23:46:00,34.0,34.0,29.87,ENE,68,3.0,18.0,100,0.00,,,0.00,Weather View 32 v70,2013-02-03 04:46:00,
2013-02-02 23:51:00,34.0,34.0,29.87,SSE,158,1.0,18.0,100,0.00,,,0.00,Weather View 32 v70,2013-02-03 04:51:00,
2013-02-02 23:56:00,34.0,34.0,29.86,NE,45,2.0,16.0,100,0.00,,,0.00,Weather View 32 v70,2013-02-03 04:56:00,